User: anonymous   Login
Location: Unspecified
(0.0000°N, 0.0000°E)
Time: 10:04:40
(UTC+00:00)
Language:

Kosmos-1791 - Orbit

View from above orbital plane
View from above orbital plane
View from above satellite
View from above satellite

Ground track
Ground track

The orbit data is extracted from the following two-line orbital elements,

1 17066U 86086A   18017.51495819 +.00000031 +00000-0 +16095-4 0  9996
2 17066 082.9465 019.4316 0040861 182.5008 293.2117 13.75758521565671
Epoch (UTC): 17 January 2018 12:21:32
Eccentricity: 0.0040861
inclination: 82.9465°
perigee height: 949 km
apogee height: 1009 km
right ascension of ascending node: 19.4316°
argument of perigee: 182.5008°
revolutions per day: 13.75758521
mean anomaly at epoch: 293.2117°
orbit number at epoch: 56567

The dashed part of the orbit path shows where the satellite is in the earth's shadow,  

DLR